• In Uzbekistan
  • List of Countries
  • For 7 days
  • Water Temperature
  • Satellite Maps
  • Weather Map
  • Weather Widgets
  • user-avatar
    Login

    Hourly Weather Korçe

    Today, 18 November, Saturday

    Time Temperature Precipitation Wind Pressure Humidity
    00:00 +6°C° 0 mm 2 mps 663 mmHg 89%
    01:00 +6°C° 0 mm 2 mps 662 mmHg 91%
    02:00 +6°C° 0.1 mm 2 mps 662 mmHg 90%
    03:00 +6°C° 0.1 mm 2 mps 662 mmHg 90%
    04:00 +6°C° 0.1 mm 2 mps 662 mmHg 90%
    05:00 +6°C° 0 mm 2 mps 662 mmHg 90%
    06:00 +6°C° 0 mm 2 mps 662 mmHg 89%
    07:00 +6°C° 0 mm 2 mps 662 mmHg 89%
    08:00 +7°C° 0 mm 2 mps 662 mmHg 84%
    09:00 +8°C° 0 mm 2 mps 663 mmHg 79%
    10:00 +9°C° 0 mm 2 mps 663 mmHg 74%
    11:00 +10°C° 0 mm 2 mps 663 mmHg 72%
    12:00 +10°C° 0 mm 2 mps 663 mmHg 69%
    13:00 +10°C° 0 mm 2 mps 663 mmHg 66%
    14:00 +10°C° 0.1 mm 2 mps 663 mmHg 70%
    15:00 +9°C° 0.1 mm 2 mps 663 mmHg 74%
    16:00 +10°C° 0.1 mm 1 mps 662 mmHg 78%
    17:00 +9°C° 0.1 mm 1 mps 662 mmHg 80%
    18:00 +7°C° 0.1 mm 2 mps 662 mmHg 82%
    19:00 +7°C° 0.1 mm 2 mps 662 mmHg 85%
    20:00 +7°C° 0.1 mm 2 mps 662 mmHg 86%
    21:00 +6°C° 0.1 mm 2 mps 662 mmHg 87%
    22:00 +6°C° 0.1 mm 2 mps 662 mmHg 87%
    23:00 +6°C° 0.1 mm 2 mps 662 mmHg 88%

    Tomorrow, 19 November, Sunday

    Time Temperature Precipitation Wind Pressure Humidity
    00:00 +7°C° 0.1 mm 1 mps 662 mmHg 88%
    01:00 +6°C° 0.1 mm 1 mps 662 mmHg 88%
    02:00 +6°C° 0.1 mm 1 mps 662 mmHg 88%
    03:00 +6°C° 0.1 mm 1 mps 662 mmHg 88%
    04:00 +6°C° 0.1 mm 1 mps 662 mmHg 89%
    05:00 +6°C° 0 mm 1 mps 662 mmHg 89%
    06:00 +6°C° 0 mm 1 mps 662 mmHg 89%
    07:00 +6°C° 0 mm 1 mps 662 mmHg 89%
    08:00 +7°C° 0 mm 1 mps 663 mmHg 83%
    09:00 +8°C° 0 mm 1 mps 663 mmHg 77%
    10:00 +10°C° 0 mm 1 mps 664 mmHg 71%
    11:00 +10°C° 0.1 mm 1 mps 664 mmHg 70%
    12:00 +9°C° 0.1 mm 2 mps 663 mmHg 69%
    13:00 +9°C° 0.1 mm 2 mps 663 mmHg 67%
    14:00 +9°C° 0.2 mm 2 mps 663 mmHg 72%
    15:00 +8°C° 0.2 mm 2 mps 663 mmHg 76%
    16:00 +7°C° 0.2 mm 2 mps 662 mmHg 80%
    17:00 +7°C° 0.1 mm 2 mps 662 mmHg 84%
    18:00 +6°C° 0.1 mm 2 mps 662 mmHg 87%
    19:00 +5°C° 0.1 mm 2 mps 662 mmHg 90%
    20:00 +5°C° 0.1 mm 2 mps 662 mmHg 91%
    21:00 +5°C° 0.1 mm 2 mps 662 mmHg 91%
    22:00 +5°C° 0.1 mm 2 mps 662 mmHg 91%
    23:00 +4°C° 0.1 mm 2 mps 662 mmHg 91%

    Day after tomorrow, 20 November, Monday

    Time Temperature Precipitation Wind Pressure Humidity
    00:00 +4°C° 0.1 mm 2 mps 662 mmHg 91%
    01:00 +3°C° 0.1 mm 3 mps 662 mmHg 91%
    02:00 +2°C° 0.3 mm 3 mps 662 mmHg 90%
    03:00 +2°C° 0.3 mm 3 mps 662 mmHg 90%
    04:00 +2°C° 0.3 mm 3 mps 662 mmHg 89%
    05:00 +3°C° 0.5 mm 2 mps 662 mmHg 89%
    06:00 +2°C° 0.5 mm 2 mps 662 mmHg 89%
    07:00 +2°C° 0.5 mm 2 mps 663 mmHg 89%
    08:00 +3°C° 0.1 mm 2 mps 663 mmHg 81%
    09:00 +3°C° 0.1 mm 3 mps 664 mmHg 72%
    10:00 +3°C° 0.1 mm 3 mps 665 mmHg 64%
    11:00 +4°C° 0 mm 3 mps 665 mmHg 62%
    12:00 +4°C° 0 mm 4 mps 665 mmHg 60%
    13:00 +4°C° 0 mm 4 mps 665 mmHg 58%
    14:00 +3°C° 0 mm 4 mps 665 mmHg 61%
    15:00 +2°C° 0 mm 3 mps 666 mmHg 64%
    16:00 +2°C° 0 mm 3 mps 666 mmHg 66%
    17:00 +2°C° 0 mm 2 mps 666 mmHg 69%
    18:00 +1°C° 0 mm 2 mps 666 mmHg 71%
    19:00 +1°C° 0 mm 1 mps 667 mmHg 73%
    20:00 +1°C° 0 mm 1 mps 667 mmHg 73%
    21:00 0°C° 0 mm 1 mps 667 mmHg 73%
    22:00 0°C° 0 mm 1 mps 668 mmHg 73%
    23:00 0°C° 0 mm 1 mps 668 mmHg 73%

    21 November, Tuesday

    Time Temperature Precipitation Wind Pressure Humidity
    00:00 0°C° 0 mm 1 mps 668 mmHg 72%
    01:00 0°C° 0 mm 1 mps 668 mmHg 71%
    02:00 0°C° 0 mm 1 mps 668 mmHg 70%
    03:00 0°C° 0 mm 1 mps 668 mmHg 68%
    04:00 0°C° 0 mm 1 mps 668 mmHg 67%
    05:00 0°C° 0 mm 1 mps 668 mmHg 64%
    06:00 0°C° 0 mm 1 mps 668 mmHg 62%
    07:00 0°C° 0 mm 1 mps 668 mmHg 60%
    08:00 +2°C° 0 mm 1 mps 668 mmHg 54%
    09:00 +4°C° 0 mm 1 mps 669 mmHg 48%
    10:00 +6°C° 0 mm 1 mps 670 mmHg 43%
    11:00 +6°C° 0 mm 2 mps 670 mmHg 43%
    12:00 +6°C° 0 mm 2 mps 669 mmHg 43%
    13:00 +7°C° 0 mm 2 mps 669 mmHg 44%
    14:00 +6°C° 0 mm 2 mps 669 mmHg 49%
    15:00 +4°C° 0 mm 2 mps 669 mmHg 54%
    16:00 +4°C° 0 mm 1 mps 668 mmHg 60%
    17:00 +4°C° 0 mm 1 mps 668 mmHg 61%
    18:00 +3°C° 0 mm 1 mps 668 mmHg 63%
    19:00 +2°C° 0 mm 1 mps 668 mmHg 65%
    20:00 +2°C° 0 mm 1 mps 668 mmHg 64%
    21:00 +2°C° 0 mm 1 mps 668 mmHg 63%
    22:00 +1°C° 0 mm 1 mps 668 mmHg 62%
    23:00 +1°C° 0 mm 1 mps 668 mmHg 62%

    22 November, Wednesday

    Time Temperature Precipitation Wind Pressure Humidity
    00:00 +1°C° 0 mm 1 mps 668 mmHg 62%
    01:00 +1°C° 0 mm 1 mps 668 mmHg 62%
    02:00 +1°C° 0 mm 1 mps 668 mmHg 64%
    03:00 +1°C° 0 mm 1 mps 668 mmHg 66%
    04:00 +1°C° 0 mm 1 mps 668 mmHg 67%
    05:00 +1°C° 0 mm 1 mps 668 mmHg 69%
    06:00 +2°C° 0 mm 1 mps 668 mmHg 70%
    07:00 +2°C° 0 mm 1 mps 668 mmHg 72%
    08:00 +4°C° 0 mm 1 mps 669 mmHg 65%
    09:00 +6°C° 0 mm 1 mps 670 mmHg 59%
    10:00 +8°C° 0 mm 1 mps 670 mmHg 53%
    11:00 +9°C° 0 mm 1 mps 670 mmHg 52%
    12:00 +10°C° 0 mm 1 mps 670 mmHg 50%
    13:00 +11°C° 0 mm 1 mps 670 mmHg 49%
    14:00 +9°C° 0 mm 1 mps 670 mmHg 55%
    15:00 +8°C° 0 mm 1 mps 669 mmHg 62%
    16:00 +7°C° 0 mm 1 mps 669 mmHg 68%
    17:00 +6°C° 0 mm 1 mps 669 mmHg 70%
    18:00 +5°C° 0 mm 1 mps 669 mmHg 72%
    19:00 +5°C° 0 mm 1 mps 669 mmHg 74%
    20:00 +5°C° 0 mm 1 mps 670 mmHg 73%
    21:00 +5°C° 0 mm 1 mps 670 mmHg 73%
    22:00 +4°C° 0 mm 1 mps 670 mmHg 72%
    23:00 +4°C° 0 mm 1 mps 670 mmHg 71%

    23 November, Thursday

    Time Temperature Precipitation Wind Pressure Humidity
    00:00 +4°C° 0 mm 1 mps 670 mmHg 70%
    01:00 +4°C° 0 mm 1 mps 670 mmHg 70%
    02:00 +4°C° 0 mm 1 mps 670 mmHg 69%
    03:00 +4°C° 0 mm 1 mps 670 mmHg 68%
    04:00 +4°C° 0 mm 1 mps 670 mmHg 67%
    05:00 +4°C° 0 mm 1 mps 670 mmHg 66%
    06:00 +4°C° 0 mm 1 mps 670 mmHg 65%
    07:00 +4°C° 0 mm 1 mps 670 mmHg 64%
    08:00 +7°C° 0 mm 1 mps 671 mmHg 58%
    09:00 +8°C° 0 mm 0 mps 672 mmHg 53%
    10:00 +10°C° 0 mm 0 mps 673 mmHg 47%
    11:00 +11°C° 0 mm 0 mps 673 mmHg 46%
    12:00 +12°C° 0 mm 1 mps 673 mmHg 45%
    13:00 +13°C° 0 mm 1 mps 673 mmHg 44%
    14:00 +11°C° 0 mm 1 mps 672 mmHg 50%
    15:00 +10°C° 0 mm 1 mps 672 mmHg 57%
    16:00 +9°C° 0 mm 1 mps 672 mmHg 63%
    17:00 +8°C° 0 mm 1 mps 672 mmHg 65%
    18:00 +7°C° 0 mm 1 mps 672 mmHg 67%
    19:00 +6°C° 0 mm 1 mps 672 mmHg 69%
    20:00 +6°C° 0 mm 1 mps 672 mmHg 68%
    21:00 +6°C° 0 mm 1 mps 672 mmHg 67%
    22:00 +6°C° 0 mm 1 mps 672 mmHg 67%
    23:00 +5°C° 0 mm 1 mps 672 mmHg 66%
    Show more